• In Hungary
  • List of Countries
  • For 7 days
  • Water Temperature
  • Satellite Maps
  • Weather Map
  • News
  • Weather Widgets
  • user-avatar
    Login

    Hourly Weather Isimovo

    Today, 15 November, Thursday

    Time Temperature Precipitation Wind Pressure Humidity
    00:00 -6°C° 0 mm 1 mps 759 mmHg 53%
    01:00 -7°C° 0 mm 1 mps 759 mmHg 52%
    02:00 -7°C° 0 mm 1 mps 759 mmHg 52%
    03:00 -7°C° 0 mm 1 mps 759 mmHg 52%
    04:00 -7°C° 0 mm 1 mps 759 mmHg 52%
    05:00 -7°C° 0 mm 1 mps 759 mmHg 52%
    06:00 -7°C° 0 mm 1 mps 759 mmHg 52%
    07:00 -7°C° 0 mm 1 mps 760 mmHg 52%
    08:00 -6°C° 0 mm 1 mps 760 mmHg 50%
    09:00 -4°C° 0 mm 1 mps 760 mmHg 49%
    10:00 -3°C° 0 mm 1 mps 760 mmHg 45%
    11:00 -2°C° 0 mm 1 mps 760 mmHg 44%
    12:00 -1°C° 0 mm 1 mps 760 mmHg 43%
    13:00 0°C° 0 mm 1 mps 760 mmHg 42%
    14:00 -1°C° 0 mm 1 mps 760 mmHg 45%
    15:00 -2°C° 0 mm 1 mps 760 mmHg 49%
    16:00 -3°C° 0 mm 1 mps 760 mmHg 54%
    17:00 -3°C° 0 mm 1 mps 761 mmHg 55%
    18:00 -3°C° 0 mm 1 mps 761 mmHg 55%
    19:00 -6°C° 0 mm 2 mps 761 mmHg 55%
    20:00 -6°C° 0 mm 2 mps 761 mmHg 55%
    21:00 -4°C° 0 mm 1 mps 761 mmHg 54%
    22:00 -4°C° 0 mm 1 mps 761 mmHg 54%
    23:00 -4°C° 0 mm 1 mps 761 mmHg 53%

    Tomorrow, 16 November, Friday

    Time Temperature Precipitation Wind Pressure Humidity
    00:00 -4°C° 0 mm 1 mps 761 mmHg 53%
    01:00 -6°C° 0 mm 1 mps 761 mmHg 52%
    02:00 -6°C° 0 mm 1 mps 761 mmHg 52%
    03:00 -6°C° 0 mm 1 mps 761 mmHg 52%
    04:00 -6°C° 0 mm 1 mps 762 mmHg 51%
    05:00 -6°C° 0 mm 1 mps 762 mmHg 51%
    06:00 -6°C° 0 mm 1 mps 762 mmHg 51%
    07:00 -6°C° 0 mm 1 mps 762 mmHg 51%
    08:00 -4°C° 0 mm 1 mps 762 mmHg 50%
    09:00 -3°C° 0 mm 1 mps 762 mmHg 49%
    10:00 -3°C° 0 mm 1 mps 762 mmHg 47%
    11:00 -2°C° 0 mm 1 mps 762 mmHg 46%
    12:00 -1°C° 0 mm 1 mps 762 mmHg 44%
    13:00 0°C° 0 mm 1 mps 762 mmHg 42%
    14:00 -1°C° 0 mm 1 mps 761 mmHg 46%
    15:00 -2°C° 0 mm 1 mps 761 mmHg 51%
    16:00 -2°C° 0 mm 1 mps 761 mmHg 55%
    17:00 -3°C° 0 mm 1 mps 761 mmHg 57%
    18:00 -3°C° 0 mm 1 mps 761 mmHg 59%
    19:00 -4°C° 0 mm 1 mps 761 mmHg 61%
    20:00 -4°C° 0 mm 1 mps 761 mmHg 64%
    21:00 -4°C° 0 mm 1 mps 760 mmHg 67%
    22:00 -4°C° 0 mm 1 mps 760 mmHg 70%
    23:00 -4°C° 0 mm 1 mps 760 mmHg 71%

    Day after tomorrow, 17 November, Saturday

    Time Temperature Precipitation Wind Pressure Humidity
    00:00 -4°C° 0 mm 1 mps 759 mmHg 73%
    01:00 -4°C° 0 mm 1 mps 759 mmHg 75%
    02:00 -6°C° 0 mm 1 mps 759 mmHg 74%
    03:00 -6°C° 0 mm 1 mps 758 mmHg 74%
    04:00 -6°C° 0 mm 1 mps 758 mmHg 74%
    05:00 -6°C° 0 mm 1 mps 757 mmHg 71%
    06:00 -6°C° 0 mm 1 mps 757 mmHg 68%
    07:00 -6°C° 0 mm 1 mps 757 mmHg 65%
    08:00 -4°C° 0 mm 1 mps 756 mmHg 59%
    09:00 -4°C° 0 mm 1 mps 756 mmHg 53%
    10:00 -5°C° 0 mm 2 mps 755 mmHg 48%
    11:00 -4°C° 0 mm 2 mps 755 mmHg 45%
    12:00 -3°C° 0 mm 2 mps 754 mmHg 43%
    13:00 -3°C° 0 mm 2 mps 754 mmHg 41%
    14:00 -3°C° 0 mm 2 mps 753 mmHg 45%
    15:00 -4°C° 0 mm 2 mps 753 mmHg 48%
    16:00 -4°C° 0 mm 2 mps 753 mmHg 52%
    17:00 -5°C° 0 mm 2 mps 752 mmHg 53%
    18:00 -5°C° 0 mm 2 mps 752 mmHg 55%
    19:00 -3°C° 0 mm 1 mps 752 mmHg 56%
    20:00 -3°C° 0 mm 1 mps 752 mmHg 57%
    21:00 -4°C° 0 mm 1 mps 751 mmHg 58%
    22:00 -4°C° 0 mm 1 mps 751 mmHg 58%
    23:00 -4°C° 0 mm 1 mps 751 mmHg 59%

    18 November, Sunday

    Time Temperature Precipitation Wind Pressure Humidity
    00:00 -4°C° 0 mm 1 mps 751 mmHg 60%
    01:00 -4°C° 0 mm 1 mps 750 mmHg 60%
    02:00 -4°C° 0 mm 1 mps 750 mmHg 61%
    03:00 -4°C° 0 mm 1 mps 750 mmHg 61%
    04:00 -4°C° 0 mm 1 mps 750 mmHg 61%
    05:00 -3°C° 0 mm 1 mps 750 mmHg 61%
    06:00 -3°C° 0 mm 1 mps 750 mmHg 61%
    07:00 -3°C° 0 mm 1 mps 750 mmHg 60%
    08:00 -3°C° 0 mm 1 mps 750 mmHg 58%
    09:00 -2°C° 0 mm 1 mps 750 mmHg 55%
    10:00 -4°C° 0 mm 2 mps 750 mmHg 53%
    11:00 -3°C° 0 mm 2 mps 750 mmHg 51%
    12:00 -2°C° 0 mm 2 mps 750 mmHg 49%
    13:00 -2°C° 0 mm 2 mps 750 mmHg 47%
    14:00 -2°C° 0 mm 2 mps 750 mmHg 49%
    15:00 -3°C° 0 mm 2 mps 750 mmHg 51%
    16:00 -3°C° 0 mm 2 mps 750 mmHg 53%
    17:00 -2°C° 0 mm 1 mps 750 mmHg 53%
    18:00 -2°C° 0 mm 1 mps 751 mmHg 52%
    19:00 -3°C° 0 mm 1 mps 751 mmHg 52%
    20:00 -3°C° 0 mm 1 mps 751 mmHg 51%
    21:00 -3°C° 0 mm 1 mps 751 mmHg 49%
    22:00 -3°C° 0 mm 1 mps 751 mmHg 48%
    23:00 -3°C° 0 mm 1 mps 751 mmHg 47%

    19 November, Monday

    Time Temperature Precipitation Wind Pressure Humidity
    00:00 -4°C° 0 mm 0 mps 751 mmHg 46%
    01:00 -5°C° 0 mm 0 mps 751 mmHg 46%
    02:00 -5°C° 0 mm 0 mps 751 mmHg 45%
    03:00 -5°C° 0 mm 0 mps 751 mmHg 45%
    04:00 -5°C° 0 mm 0 mps 752 mmHg 45%
    05:00 -5°C° 0 mm 0 mps 752 mmHg 45%
    06:00 -5°C° 0 mm 0 mps 752 mmHg 45%
    07:00 -5°C° 0 mm 0 mps 752 mmHg 45%
    08:00 -5°C° 0 mm 0 mps 752 mmHg 44%
    09:00 -4°C° 0 mm 0 mps 752 mmHg 44%
    10:00 -2°C° 0 mm 1 mps 752 mmHg 43%
    11:00 -1°C° 0 mm 1 mps 752 mmHg 43%
    12:00 0°C° 0 mm 1 mps 752 mmHg 42%
    13:00 +1°C° 0 mm 1 mps 752 mmHg 41%
    14:00 0°C° 0 mm 1 mps 752 mmHg 46%
    15:00 -1°C° 0 mm 1 mps 753 mmHg 50%
    16:00 -2°C° 0 mm 1 mps 753 mmHg 54%
    17:00 -4°C° 0 mm 2 mps 753 mmHg 57%
    18:00 -5°C° 0 mm 2 mps 753 mmHg 59%
    19:00 -5°C° 0 mm 2 mps 753 mmHg 62%
    20:00 -5°C° 0 mm 2 mps 753 mmHg 65%
    21:00 -5°C° 0 mm 2 mps 753 mmHg 68%
    22:00 -6°C° 0 mm 2 mps 753 mmHg 70%
    23:00 -6°C° 0 mm 2 mps 753 mmHg 73%

    20 November, Tuesday

    Time Temperature Precipitation Wind Pressure Humidity
    00:00 -6°C° 0 mm 2 mps 753 mmHg 76%
    01:00 -6°C° 0 mm 2 mps 753 mmHg 78%
    02:00 -6°C° 0 mm 2 mps 753 mmHg 80%
    03:00 -6°C° 0 mm 2 mps 753 mmHg 82%
    04:00 -6°C° 0 mm 2 mps 753 mmHg 84%
    05:00 -6°C° 0 mm 2 mps 753 mmHg 85%
    06:00 -4°C° 0 mm 1 mps 753 mmHg 86%
    07:00 -4°C° 0 mm 1 mps 753 mmHg 87%
    08:00 -4°C° 0 mm 1 mps 753 mmHg 85%
    09:00 -3°C° 0 mm 1 mps 754 mmHg 83%
    10:00 -2°C° 0 mm 1 mps 754 mmHg 81%
    11:00 -1°C° 0 mm 1 mps 754 mmHg 78%
    12:00 -1°C° 0 mm 1 mps 754 mmHg 76%
    13:00 -1°C° 0 mm 0 mps 754 mmHg 73%
    14:00 -1°C° 0 mm 1 mps 754 mmHg 77%
    15:00 -1°C° 0 mm 1 mps 753 mmHg 81%
    16:00 -2°C° 0 mm 1 mps 753 mmHg 85%
    17:00 -3°C° 0 mm 1 mps 753 mmHg 86%
    18:00 -3°C° 0 mm 1 mps 753 mmHg 88%
    19:00 -3°C° 0 mm 1 mps 753 mmHg 89%
    20:00 -4°C° 0 mm 1 mps 753 mmHg 90%
    21:00 -4°C° 0 mm 1 mps 753 mmHg 91%
    22:00 -4°C° 0 mm 1 mps 753 mmHg 92%
    23:00 -4°C° 0 mm 1 mps 753 mmHg 93%
    Show more